This is the latest recevied weather packets stored in our database for station/object KO4DYK. If no packets are shown the sender has not sent any weather packets the latest 10 day(s).
| Time | Temp. | Humidity | Pressure | Rain* | Wind** | Luminosity | Snow |
|---|---|---|---|---|---|---|---|
| 1777933146 | 25.56° C | 46% | 1014.4 hPa | 0 mm | - | 112 W/m² | - |
| 1777932842 | 25.56° C | 46% | 1014.4 hPa | 0 mm | - | 142 W/m² | - |
| 1777932539 | 26.11° C | 45% | 1014.4 hPa | 0 mm | - | 359 W/m² | - |
| 1777932236 | 26.67° C | 47% | 1014.4 hPa | 0 mm | - | 375 W/m² | - |
| 1777931933 | 26.11° C | 46% | 1014.5 hPa | 0 mm | - | 367 W/m² | - |
| 1777931629 | 26.11° C | 45% | 1014.3 hPa | 0 mm | - | 399 W/m² | - |
| 1777931326 | 26.11° C | 44% | 1014.4 hPa | 0 mm | - | 409 W/m² | - |
| 1777931023 | 26.11° C | 47% | 1014.4 hPa | 0 mm | - | 423 W/m² | - |
| 1777930719 | 26.11° C | 47% | 1014.3 hPa | 0 mm | - | 418 W/m² | - |
| 1777930415 | 26.11° C | 46% | 1014.4 hPa | 0 mm | - | 425 W/m² | - |
| 1777930113 | 26.11° C | 46% | 1014.4 hPa | 0 mm | - | 478 W/m² | - |
| 1777929809 | 26.11° C | 45% | 1014.4 hPa | 0 mm | - | 410 W/m² | - |
| 1777929507 | 26.11° C | 45% | 1014.6 hPa | 0 mm | - | 472 W/m² | - |
| 1777929208 | 26.11° C | 45% | 1014.7 hPa | 0 mm | - | 493 W/m² | - |
| 1777928905 | 26.11° C | 44% | 1014.5 hPa | 0 mm | - | 491 W/m² | - |
| 1777928602 | 26.67° C | 45% | 1014.5 hPa | 0 mm | - | 499 W/m² | - |
| 1777928300 | 27.22° C | 45% | 1014.7 hPa | 0 mm | - | 532 W/m² | - |
| 1777927997 | 26.11° C | 45% | 1014.8 hPa | 0 mm | - | 564 W/m² | - |
| 1777927695 | 26.67° C | 44% | 1014.9 hPa | 0 mm | - | 604 W/m² | - |
| 1777927393 | 26.11° C | 46% | 1015 hPa | 0 mm | - | 594 W/m² | - |
| 1777927093 | 26.67° C | 44% | 1015 hPa | 0 mm | - | 606 W/m² | - |
| 1777926789 | 26.67° C | 46% | 1015 hPa | 0 mm | - | 596 W/m² | - |
| 1777926484 | 26.67° C | 47% | 1015 hPa | 0 mm | - | 642 W/m² | - |
| 1777926182 | 26.67° C | 45% | 1015.1 hPa | 0 mm | - | 668 W/m² | - |
| 1777925878 | 26.67° C | 46% | 1015.3 hPa | 0 mm | - | 668 W/m² | - |
* Rain latest hour (hover to see other rain measurements)
** Current wind speed in m/s (hover to see current wind gust speed)